{"data":{"norad_id":54073,"intl_designator":"2022-136Y","name":"STARLINK-5146","alt_names":[],"object_type":"PAYLOAD","status":"ACTIVE","operator":null,"country":"US","launch_date":"2022-10-20","launch_site_code":"AFETR","launch_vehicle":null,"mission":null,"orbit_class":"UNKNOWN","rcs_meters":null,"size_class":null,"mass_kg":null,"dimensions":null,"purposes":["comms"],"wikipedia_slug":null,"has_3d_model":false,"image_url":null,"decayed_at":null,"tle_current":{"epoch":"2026-05-24T23:05:59.233632Z","epoch_age_seconds":74900,"freshness":"FRESH","line1":"1 54073U 22136Y   26144.96249113 -.00000686  00000+0 -24997-4 0  9991","line2":"2 54073  53.2124 356.3758 0001603  86.7498 273.3677 15.08838862198436","mean_motion":15.08838862,"eccentricity":0.0001603,"inclination_deg":53.2124,"raan_deg":356.3758,"arg_perigee_deg":86.7498,"mean_anomaly_deg":273.3677,"bstar":-2.4997e-5,"rev_number":19843,"period_min":95.437626658903,"perigee_km":538.63793059309,"apogee_km":540.85580416097,"semimajor_km":6917.883867377,"source":"CELESTRAK","updated_at":"2026-05-25T13:38:17.651789Z"}}}